Regional Weather Roundup
Issued by NWS

Home | Current Version | Previous Version | Graphics & Text | Print | Product List | Glossary On
Versions: 1 2 3 4 5 6 7 8 9 10 11 12 13 14 15 16 17 18 19 20 21 22 23 24 25 26 27 28 29 30 31 32 33 34 35 36 37 38 39 40 41 42 43 44 45 46 47 48 49 50
000
ASUS45 KBOU 021110
RWRCO

WEATHER ROUNDUP FOR COLORADO
NATIONAL WEATHER SERVICE DENVER/BOULDER CO
500 AM MDT THU JUL 02 2015

NOTE: "FAIR" INDICATES FEW OR NO CLOUDS BELOW 12000 FEET WITH NO
SIGNIFICANT WEATHER AND/OR OBSTRUCTIONS TO VISIBILITY.

COZ001>005-013-030-031-021200-
...NORTHWEST COLORADO...

CITY           SKY/WX    TMP DP  RH WIND       PRES   REMARKS
CRAIG          MOCLDY    53  47  79 CALM      30.19R
HAYDEN         PTCLDY    57  45  62 E9        30.21R
MEEKER         MOCLDY    57  49  74 E5        30.20R
MOUNT WERNER   NOT AVBL
STEAMBOAT SPGS PTCLDY    51  47  84 E3        30.24R
WALDEN         MOCLDY    50  45  81 CALM      30.36R
$$

COZ006>008-011-021200-
...WEST CENTRAL VALLEYS...

CITY           SKY/WX    TMP DP  RH WIND       PRES   REMARKS
GRAND JUNCTION CLOUDY    73  53  49 SE5       30.04R
MONTROSE       CLOUDY    72  51  47 CALM      30.15R
EAGLE          MOCLDY    57  48  72 CALM      30.26R
RIFLE          CLOUDY    64  49  57 CALM      30.13R
DELTA          CLOUDY    70  51  51 S5        30.11R
NUCLA          CLOUDY    72  52  49 S3        30.23R
$$

COZ017>023-064>068-021200-
...SOUTHWEST COLORADO...

CITY           SKY/WX    TMP DP  RH WIND       PRES   REMARKS
DURANGO        CLOUDY    64  54  69 N5        30.26F
CORTEZ         CLOUDY    71  54  54 VRB3      30.22S
PAGOSA SPRINGS CLOUDY    55  53  92 CALM      30.36S
TELLURIDE      TSTM      63  48  57 W18G24    30.45R
WOLF CREEK PAS NOT AVBL
$$

COZ009-010-012-014-032>034-037-058>063-021200-
...CENTRAL COLORADO...

CITY           SKY/WX    TMP DP  RH WIND       PRES   REMARKS
ASPEN          CLOUDY    57  46  66 S3        30.30R
BUENA VISTA    MOCLDY    52  49  88 CALM      30.35S
COPPER MTN     MOCLDY    54  39  58 W10       30.63S
BERTHOUD PASS  FAIR      45  34  65 N15G26    30.67R THUNDER
COTTONWOOD PAS NOT AVBL
GUNNISON       CLOUDY    55  45  67 N8        30.35S
KREMMLING      PTCLDY    52  45  76 CALM      30.32S
LEADVILLE      MOCLDY    43  43 100 NE5       30.47R
MONARCH PASS   CLOUDY    46  39  76 SW16      30.72S
SALIDA         MOCLDY    57  52  83 NW6       30.39S
SUNLIGHT       CLOUDY    59  45  58 CALM      30.55S
WILKERSON PASS MOCLDY    52  41  66 NW6       30.59S
$$

COZ069>075-021200-
...SAN LUIS VALLEY/SANGRE DE CRISTO MOUNTAINS...

CITY           SKY/WX    TMP DP  RH WIND       PRES   REMARKS
ALAMOSA        CLOUDY    55  53  93 CALM      30.32S
LA VETA PASS   CLOUDY    46  43  87 MISG      30.46S
SAGUACHE       CLOUDY    52  50  93 NW6       30.35S
$$

COZ035-036-038>040-021200-
...NORTHERN COLORADO FRONT RANGE...

CITY           SKY/WX    TMP DP  RH WIND       PRES   REMARKS
DENVER INTL AP PTCLDY    59  55  87 N13       30.16R
DMNS CITY PARK   N/A     63  57  81 N6G21     30.18R
AURORA         PTCLDY    60  56  85 N6G29     30.16R
FRONT RANGE AP CLEAR     61  57  88 NW13      30.17R
ERIE MUNI ARPT PTCLDY    61  58  89 N13       30.18R
BOULDER MUN AP PTCLDY    63  57  82 NW3       30.21R
CENTENNIAL     PTCLDY    61  54  77 N5        30.17R
BROOMFIELD     PTCLDY    61  55  82 N17       30.21R
FORT COLLINS   MOCLDY    64  55  72 N22       30.24R
LONGMONT       PTCLDY    67  56  67 N23G29    30.21R
$$

COZ041-046-047-076>085-087-088-021200-
...PIKES PEAK/PALMER DIVIDE AND SOUTHERN FOOTHILLS...

CITY           SKY/WX    TMP DP  RH WIND       PRES   REMARKS
COLO. SPRINGS  MOCLDY    60  56  86 CALM      30.19S
A. F. ACADEMY  PTCLDY    54  54  99 N5        30.20S
ELLICOTT       PTCLDY     1  32 100 W6        30.17S WCI -10
FALCON         PTCLDY    55  53  94 W5        30.23S
FORT CARSON    MOCLDY    57  57  98 N6        30.16S
LIMON          CLEAR     58  55  90 SW6       30.12F
MONUMENT HILL  CLEAR     55  52  88 MISG      30.23R
TRINIDAD       CLOUDY    61  56  83 SW7       30.16S
$$

COZ042>045-048>051-090-091-021200-
...NORTHEAST COLORADO...

CITY           SKY/WX    TMP DP  RH WIND       PRES   REMARKS
GREELEY ARPT   MOCLDY    61  54  77 E18G37    30.17R
AKRON          MOCLDY    59  54  83 NE24G36   30.19R
BURLINGTON     MOCLDY    62  59  90 NE8       30.08S
WRAY           LGT RAIN  62  56  83 N30G38    30.13S
STERLING       MOCLDY    61  54  77 NE14G21     N/A
HOLYOKE        CLOUDY    63  55  77 NE15      30.15S
FORT MORGAN    MOCLDY    58  52  80 NE20G30   30.19R
$$

COZ086-089-092>099-021200-
...SOUTHEAST COLORADO...

CITY           SKY/WX    TMP DP  RH WIND       PRES   REMARKS
PUEBLO         MOCLDY    62  59  90 CALM      30.10S
LA JUNTA       PTCLDY    64  62  93 CALM      30.07R
LAMAR          PTCLDY    67  64  90 NW3       30.03S
SPRINGFIELD      N/A     65  62  90 NW8       30.04F
$$



USA.gov is the U.S. government's official web portal to all federal, state and local government web resources and services.